DW2147 Weather Reports


time (UTC)temp
C
wind
direction
speed
KPH
gust
KPH
rain 1hr
cm
rain 24hr
cm
rain mn
cm
humidity
%
barometer
mb
20260503213626 15 0 8.0 22.5 0.00 0.00 0.00 35 1015.8
20260503213126 15 0 6.4 22.5 0.00 0.00 0.00 37 1015.7
20260503212857 15 244 6.4 16.1 0.00 0.00 0.00 35 1015.7
20260503212125 15 0 6.4 16.1 0.00 0.00 0.00 36 1015.8
20260503211856 15 30 4.8 16.1 0.00 0.00 0.00 35 1015.7
20260503211129 15 0 4.8 16.1 0.00 0.00 0.00 35 1015.8
20260503210626 15 165 6.4 17.7 0.00 0.00 0.00 34 1015.9
20260503210125 16 0 6.4 17.7 0.00 0.00 0.00 34 1015.8
20260503205627 15 238 6.4 19.3 0.00 0.00 0.00 38 1015.9
20260503205356 15 0 8.0 19.3 0.00 0.00 0.00 33 1015.8
20260503204621 15 0 8.0 19.3 0.00 0.00 0.00 35 1016.0
20260503204120 15 0 8.0 22.5 0.00 0.00 0.00 34 1016.0
20260503203618 16 0 9.7 22.5 0.00 0.00 0.00 35 1016.0
20260503203120 16 128 9.7 20.9 0.00 0.00 0.00 33 1016.0
20260503202617 16 0 9.7 24.1 0.00 0.00 0.00 38 1016.2
20260503202119 16 0 9.7 24.1 0.00 0.00 0.00 35 1016.3
20260503201618 16 0 8.0 20.9 0.00 0.00 0.00 34 1016.2
20260503201118 16 0 9.7 22.5 0.00 0.00 0.00 34 1016.3
20260503200618 16 0 8.0 22.5 0.00 0.00 0.00 35 1016.4
20260503200116 15 0 6.4 16.1 0.00 0.00 0.00 38 1016.4
20260503195614 15 0 4.8 14.5 0.00 0.00 0.00 40 1016.5
20260503195116 15 0 6.4 17.7 0.00 0.00 0.00 37 1016.6
20260503194614 15 0 9.7 22.5 0.00 0.00 0.00 35 1016.7
20260503194114 15 190 6.4 22.5 0.00 0.00 0.00 38 1016.7
20260503193612 15 270 8.0 19.3 0.00 0.00 0.00 38 1016.9
20260503193111 15 0 8.0 19.3 0.00 0.00 0.00 33 1017.0
20260503192614 16 0 6.4 17.7 0.00 0.00 0.00 36 1017.1
20260503192112 16 305 6.4 17.7 0.00 0.00 0.00 39 1017.1
20260503191609 15 0 6.4 19.3 0.00 0.00 0.00 38 1017.1
20260503191341 15 0 8.0 19.3 0.00 0.00 0.00 38 1017.2
20260503190609 15 0 8.0 25.7 0.00 0.00 0.00 41 1017.3
20260503190106 14 275 8.0 25.7 0.00 0.00 0.00 37 1017.3
20260503185604 14 0 8.0 19.3 0.00 0.00 0.00 36 1017.2
20260503185102 14 0 8.0 19.3 0.00 0.00 0.00 37 1017.3
20260503184559 15 0 8.0 19.3 0.00 0.00 0.00 34 1017.5
20260503184059 15 0 6.4 14.5 0.00 0.00 0.00 37 1017.5
20260503183601 15 0 6.4 19.3 0.00 0.00 0.00 36 1017.6
20260503183100 15 0 9.7 19.3 0.00 0.00 0.00 40 1017.6
20260503182557 15 0 9.7 19.3 0.00 0.00 0.00 38 1017.7
20260503182056 14 0 6.4 19.3 0.00 0.00 0.00 41 1017.7
20260503181555 14 0 6.4 20.9 0.00 0.00 0.00 37 1017.7
20260503181055 13 0 9.7 24.1 0.00 0.00 0.00 40 1017.8
20260503180553 13 0 9.7 24.1 0.00 0.00 0.00 36 1017.7
20260503180051 13 0 11.3 24.1 0.00 0.00 0.00 38 1017.7
20260503175548 13 0 9.7 24.1 0.00 0.00 0.00 37 1017.8
20260503175049 13 0 9.7 24.1 0.00 0.00 0.00 37 1018.1
20260503174548 13 161 8.0 24.1 0.00 0.00 0.00 36 1018.2
20260503174048 13 324 6.4 17.7 0.00 0.00 0.00 37 1018.1
20260503173543 13 0 8.0 22.5 0.00 0.00 0.00 40 1018.3
20260503173044 13 0 9.7 22.5 0.00 0.00 0.00 40 1018.3
20260503172543 13 24 8.0 20.9 0.00 0.00 0.00 39 1018.3
20260503172045 13 0 4.8 17.7 0.00 0.00 0.00 36 1018.2
20260503171543 13 284 6.4 17.7 0.00 0.00 0.00 39 1018.2
20260503171044 13 0 8.0 19.3 0.00 0.00 0.00 38 1018.4
20260503170542 13 242 11.3 27.4 0.00 0.00 0.00 39 1018.4
20260503150531 10 0 6.4 19.3 0.00 0.00 0.00 46 1019.1
20260503131252 6 0 8.0 17.7 0.00 0.00 0.00 63 1018.9
20260503130524 6 182 8.0 17.7 0.00 0.00 0.00 63 1018.9
20260503110504 1 0 3.2 8.0 0.00 0.00 0.00 71 1017.9
20260503090440 2 206 1.6 4.8 0.00 0.00 0.00 71 1016.9
20260503081424 2 292 0.0 3.2 0.00 0.00 0.00 71 1016.8
20260503080920 2 0 0.0 3.2 0.00 0.00 0.00 71 1016.8
20260503080418 2 291 0.0 3.2 0.00 0.00 0.00 71 1016.7
20260503080150 2 0 0.0 3.2 0.00 0.00 0.00 71 1016.6
20260503072915 2 0 0.0 1.6 0.00 0.00 0.00 72 1016.5
20260503072647 2 0 0.0 1.6 0.00 0.00 0.00 72 1016.5
20260503071914 2 293 1.6 4.8 0.00 0.00 0.00 72 1016.5
20260503071415 2 292 1.6 4.8 0.00 0.00 0.00 72 1016.5
20260503070915 2 0 0.0 3.2 0.00 0.00 0.00 72 1016.4
20260503070411 2 286 0.0 0.0 0.00 0.00 0.00 72 1016.6
20260503054858 4 0 1.6 4.8 0.00 0.00 0.00 71 1016.4
20260503054356 4 0 1.6 4.8 0.00 0.00 0.00 71 1016.4
20260503053857 4 0 1.6 4.8 0.00 0.00 0.00 70 1016.5
20260503053356 4 0 1.6 6.4 0.00 0.00 0.00 70 1016.5
20260503052857 4 0 1.6 6.4 0.00 0.00 0.00 70 1016.4
20260503052356 4 0 1.6 8.0 0.00 0.00 0.00 70 1016.4
20260503051857 4 0 1.6 8.0 0.00 0.00 0.00 70 1016.5
20260503051354 4 0 1.6 4.8 0.00 0.00 0.00 70 1016.4
20260503050854 4 0 1.6 4.8 0.00 0.00 0.00 70 1016.5
20260503050355 4 0 1.6 4.8 0.00 0.00 0.00 70 1016.5
20260503050125 4 0 0.0 3.2 0.00 0.00 0.00 69 1016.5
20260503045355 4 0 1.6 4.8 0.00 0.00 0.00 69 1016.6
20260503044854 4 0 1.6 4.8 0.00 0.00 0.00 69 1016.6
20260503044356 4 0 1.6 6.4 0.00 0.00 0.00 69 1016.5
20260503043848 4 0 1.6 6.4 0.00 0.00 0.00 69 1016.7
20260503043349 4 0 1.6 6.4 0.00 0.00 0.00 69 1016.7
20260503042850 5 0 1.6 3.2 0.00 0.00 0.00 69 1016.7
20260503042347 5 0 0.0 3.2 0.00 0.00 0.00 69 1016.6
20260503042118 5 0 0.0 3.2 0.00 0.00 0.00 69 1016.6
20260503041347 5 0 1.6 3.2 0.00 0.00 0.00 68 1016.6
20260503040838 5 0 1.6 4.8 0.00 0.00 0.00 68 1016.6
20260503040336 5 0 0.0 4.8 0.00 0.00 0.00 68 1016.7
20260503035834 5 0 0.0 3.2 0.00 0.00 0.00 68 1016.7
20260503035606 5 301 0.0 4.8 0.00 0.00 0.00 68 1016.7
20260503034836 5 300 0.0 4.8 0.00 0.00 0.00 68 1016.7
20260503034600 5 301 0.0 3.2 0.00 0.00 0.00 68 1016.6
20260503033829 5 300 1.6 4.8 0.00 0.00 0.00 68 1016.6
20260503033328 5 301 1.6 4.8 0.00 0.00 0.00 67 1016.6
20260503032824 5 0 3.2 4.8 0.00 0.00 0.00 67 1016.6
20260503032322 5 0 1.6 4.8 0.00 0.00 0.00 67 1016.6
20260503031823 5 0 1.6 4.8 0.00 0.00 0.00 67 1016.6
20260503031321 5 0 1.6 4.8 0.00 0.00 0.00 67 1016.6
20260503031052 5 0 3.2 6.4 0.00 0.00 0.00 67 1016.5
20260503030320 5 0 3.2 9.7 0.00 0.00 0.00 67 1016.6
20260503025817 5 0 3.2 9.7 0.00 0.00 0.00 67 1016.6
20260503025545 5 0 1.6 4.8 0.00 0.00 0.00 67 1016.7
20260503024814 5 0 1.6 4.8 0.00 0.00 0.00 67 1016.7
20260503024313 5 0 1.6 4.8 0.00 0.00 0.00 67 1016.8
20260503023811 5 0 1.6 4.8 0.00 0.00 0.00 67 1016.9
20260503023311 5 0 1.6 4.8 0.00 0.00 0.00 67 1016.9
20260503023041 5 0 1.6 4.8 0.00 0.00 0.00 67 1017.0
20260503022312 5 0 1.6 6.4 0.00 0.00 0.00 67 1016.9
20260503021809 5 0 1.6 6.4 0.00 0.00 0.00 67 1017.0
20260503021540 5 0 1.6 6.4 0.00 0.00 0.00 66 1016.9
20260503020807 5 0 1.6 6.4 0.00 0.00 0.00 66 1016.9
20260503020540 5 0 1.6 4.8 0.00 0.00 0.00 66 1016.9
20260503015807 5 0 1.6 4.8 0.00 0.00 0.00 66 1016.9
20260503015305 5 0 1.6 4.8 0.00 0.00 0.00 66 1016.9
20260503014807 5 0 1.6 4.8 0.00 0.00 0.00 66 1016.9
20260503014306 5 0 1.6 4.8 0.00 0.00 0.00 66 1016.9
20260503013805 5 0 3.2 9.7 0.00 0.00 0.00 66 1016.8
20260503013302 5 0 4.8 9.7 0.00 0.00 0.00 65 1016.9
20260503012802 5 0 4.8 8.0 0.00 0.00 0.00 65 1016.9
20260503012305 5 0 3.2 8.0 0.00 0.00 0.00 65 1016.8
20260503011802 5 0 3.2 9.7 0.00 0.00 0.00 65 1016.7
20260503011301 5 315 3.2 9.7 0.00 0.00 0.00 65 1016.7
20260503010802 6 0 3.2 6.4 0.00 0.00 0.00 65 1016.6
20260503010529 6 0 4.8 6.4 0.00 0.00 0.00 65 1016.5
20260503005757 6 0 4.8 8.0 0.00 0.00 0.00 65 1016.5
20260503005255 6 0 3.2 8.0 0.00 0.00 0.00 64 1016.5
20260503004755 6 0 4.8 9.7 0.00 0.00 0.00 64 1016.3
20260503004255 6 0 4.8 9.7 0.00 0.00 0.00 64 1016.3
20260503004027 6 0 4.8 9.7 0.00 0.00 0.00 64 1016.2
20260503003255 6 0 6.4 14.5 0.00 0.00 0.00 63 1016.1
20260503002755 6 0 6.4 14.5 0.00 0.03 0.00 63 1016.1
20260503002252 6 0 6.4 12.9 0.00 0.03 0.00 63 1016.2
20260503001753 6 342 6.4 12.9 0.00 0.05 0.00 63 1016.2
20260503001252 6 0 4.8 12.9 0.00 0.05 0.00 63 1016.2
20260503000750 6 0 4.8 12.9 0.00 0.05 0.00 63 1016.2
20260503000252 6 0 4.8 17.7 0.00 0.05 0.00 63 1016.1
20260502235750 6 0 6.4 17.7 0.00 0.05 0.00 63 1016.1
20260502235250 6 0 6.4 17.7 0.00 0.05 0.00 63 1016.1
20260502234749 6 0 6.4 17.7 0.00 0.05 0.00 63 1016.0
20260502234249 6 0 8.0 16.1 0.00 0.05 0.00 62 1016.0
20260502233750 6 0 9.7 20.9 0.00 0.05 0.00 62 1016.0
20260502233522 6 0 8.0 20.9 0.00 0.05 0.00 62 1015.9
20260502233022 7 0 8.0 17.7 0.00 0.05 0.00 62 1015.9
20260502232746 7 0 8.0 16.1 0.00 0.05 0.00 62 1015.9
20260502231747 7 0 6.4 17.7 0.00 0.05 0.00 62 1015.8
20260502231244 7 0 6.4 12.9 0.00 0.05 0.00 62 1015.7
20260502230743 7 0 4.8 12.9 0.00 0.05 0.00 63 1015.6
20260502230240 7 0 4.8 14.5 0.00 0.05 0.00 63 1015.7
20260502225740 7 0 6.4 14.5 0.00 0.05 0.00 63 1015.6
20260502225240 7 0 6.4 12.9 0.00 0.05 0.00 63 1015.7
20260502224739 7 0 8.0 20.9 0.00 0.05 0.00 63 1015.7
20260502224238 7 0 9.7 22.5 0.00 0.05 0.00 62 1015.8
20260502223737 7 0 9.7 22.5 0.00 0.05 0.00 61 1015.8
20260502223238 8 0 8.0 17.7 0.00 0.05 0.00 59 1015.6
20260502222738 8 0 8.0 17.7 0.00 0.05 0.00 59 1015.7
20260502222237 8 0 9.7 22.5 0.00 0.05 0.00 59 1015.6
20260502221737 8 0 12.9 22.5 0.00 0.05 0.00 58 1015.5
20260502221236 8 0 11.3 19.3 0.00 0.08 0.00 57 1015.5
20260502220734 8 0 8.0 20.9 0.00 0.08 0.00 57 1015.4
20260502220235 8 0 8.0 20.9 0.00 0.08 0.00 57 1015.3
20260502220005 8 0 6.4 17.7 0.00 0.08 0.00 57 1015.4
20260502215233 8 0 8.0 19.3 0.00 0.08 0.00 59 1015.2
20260502214733 8 0 8.0 19.3 0.00 0.08 0.00 58 1015.3
20260502214235 8 0 8.0 17.7 0.00 0.08 0.00 58 1015.2